Location: Unspecified
(0.0000°N, 0.0000°E)
Time: 00:27:17
(UTC+01:00)

Cosmos 1538 Rocket - Visible Passes

Search period start: 20 January 2017 00:00
Search period end: 30 January 2017 00:00
Orbit: 751 x 793 km, 74.0° (Epoch: 19 January)

Date Brightness Start Highest point End Pass type
(mag) Time Alt. Az. Time Alt. Az. Time Alt. Az.
20 Jan 6.5 19:55:55 10° SW 19:59:46 21° WNW 20:03:40 10° NNW visible
21 Jan 4.5 06:45:50 10° N 06:51:05 66° ENE 06:56:20 10° SSE visible
22 Jan 5.8 06:10:39 10° NNE 06:15:23 33° ENE 06:20:04 10° SE visible
23 Jan 6.7 05:36:19 10° NE 05:39:39 17° ENE 05:42:58 10° ESE visible
24 Jan 4.2 06:40:38 10° NNW 06:45:48 56° WSW 06:50:57 10° S visible
25 Jan 4.2 06:04:49 10° N 06:10:06 74° ENE 06:15:20 10° SSE visible
26 Jan 5.4 05:29:33 10° NNE 05:34:23 36° ENE 05:39:11 10° SE visible
27 Jan 6.4 04:55:02 10° NE 04:58:39 19° ENE 05:02:15 10° ESE visible
27 Jan 5.1 06:36:13 10° NW 06:40:30 25° WSW 06:44:47 10° SSW visible
28 Jan 4.2 06:01:32 21° NW 06:04:48 50° WSW 06:09:52 10° S visible
29 Jan 4.0 05:27:35 48° N 05:29:06 82° ENE 05:34:20 10° SSE visible
